Location: Barksdale Creek
(33.1478°N, 96.6286°W)
Time: 04:41:59
(UTC+00:00)

Daily predictions for brighter satellites

Satellite Brightness Start Highest point End
(mag) Time Altitude Azimuth Time Altitude Azimuth Time Altitude Azimuth
Sakura Rocket 4.5 00:00:31 10° SW 00:04:18 26° SSE 00:07:32 10° ESE
NOSS 2-3 (D) 3.1 00:00:26 10° SSW 00:04:21 89° SE 00:08:01 10° NNE
COSMO-SKYMED 1 3.4 00:05:04 10° NE 00:08:35 27° E 00:12:04 10° SSE
Cosmos 2263 Rocket 3.7 00:05:35 10° NNE 00:08:44 15° NE 00:10:29 13° ENE
Thor Agena Rocket 4.1 00:05:35 10° S 00:10:46 65° WSW 00:15:56 10° NNW
COSMOS 2455 4.5 00:09:09 10° SE 00:11:51 13° ESE 00:13:09 12° E
Cosmos 1726 Rocket 3.6 00:15:29 10° S 00:20:06 76° E 00:24:44 10° N
Cosmos 2227 Rocket 2.7 00:17:15 10° N 00:22:23 35° ENE 00:27:29 10° SE
SAR-Lupe-4 3.8 00:19:19 10° S 00:22:50 73° WSW 00:26:24 10° NNW
Okean 1-7 Rocket 3.4 00:18:35 10° N 00:22:58 83° E 00:27:18 10° S
IRS-1C 4.3 00:20:11 10° S 00:25:30 79° WSW 00:30:50 10° NNW
ATLAS 5 CENTAUR R/B 4.2 00:21:29 10° SSW 00:27:14 85° ESE 00:52:05 10° NE
USA 290 2.7 00:25:06 10° NNW 00:28:19 62° WSW 00:31:31 10° S
Cosmos 1697 Rocket 3.6 00:24:50 10° SW 00:30:12 47° WNW 00:35:36 10° N
CZ-2D R/B 3.7 00:28:13 10° S 00:31:15 48° W 00:34:18 10° NNW
Spot 4 Rocket 4.4 00:27:40 10° SE 00:32:20 37° ENE 00:37:01 10° N
ATLAS CENTAUR R/B 1.4 00:29:55 10° NW 00:33:00 53° WSW 00:35:58 10° SSE
YAOGAN 1 3.1 00:29:52 10° SE 00:33:42 34° ENE 00:37:32 10° N
SKYMED 2 3.6 00:30:17 10° N 00:34:39 86° W 00:38:58 10° SSW
Cosmos 724 4.2 00:29:40 10° NNW 00:35:40 83° ENE 00:41:29 10° SSE
H-II Stage 2 3.8 00:27:07 10° W 00:38:10 42° SSW 00:41:02 13° SE
Meteor 2-20 4.4 00:32:48 10° S 00:38:57 83° E 00:45:08 10° N
Cosmos 1898 Rocket 3.5 00:36:00 10° S 00:40:59 54° ESE 00:44:15 21° NNE
OAO 1 4.5 00:39:22 10° WSW 00:44:53 88° NNW 00:47:33 32° ENE
Cosmos-2242 2.9 00:44:04 10° S 00:48:14 64° E 00:50:38 24° NNE
Cosmos 1953 Rocket 3.4 00:51:40 10° N 00:56:08 79° E 01:00:34 10° S
Meteor 2-10 4.2 00:50:54 10° N 00:56:11 53° E 01:01:37 10° SSE
EXPRESS MD2 4.4 00:56:11 10° W 00:58:21 23° NNW 00:58:35 22° NNW
BREEZE-M DEB (TANK) 4.3 00:56:25 10° W 01:00:05 22° NW 01:00:59 19° NNW
Helios 1A Rocket 2.5 00:59:45 50° N 01:00:32 75° WNW 01:03:53 10° SSW
Meteor 2-20 Rocket 4.4 00:54:40 10° S 01:01:01 87° E 01:07:11 10° N
Cosmos 372 Rocket 4.1 00:57:03 10° SSW 01:02:12 71° WNW 01:06:00 18° N
Cosmos 2237 4.5 00:57:01 10° S 01:02:25 45° ESE 01:03:16 42° E
Cosmos 1937 Rocket 3.4 00:57:30 10° S 01:02:38 64° ESE 01:04:15 42° NE
Meteor 1-26 Rocket 4.0 00:57:48 10° S 01:03:15 85° E 01:07:43 16° N
Cosmos 1655 Rocket 4.1 00:58:48 10° N 01:05:01 77° W 01:11:12 10° S
Aureole 1 Rocket 3.7 01:01:48 10° SW 01:05:35 51° WNW 01:09:04 17° N
Cosmos 1867 3.4 01:00:15 10° NNW 01:05:43 82° ENE 01:11:08 10° SSE
Cosmos 967 Rocket 4.4 01:06:11 10° SSW 01:12:26 75° ESE 01:14:48 41° NE
SL-16 R/B 3.6 01:07:49 10° SSE 01:10:22 22° SE 01:10:22 22° SE
Cosmos 2297 Rocket 4.1 01:10:11 10° NW 01:15:00 29° WSW 01:19:48 10° SSW
OceanSat 1 rocket 4.4 01:12:09 10° SSE 01:16:55 81° ENE 01:21:40 10° N
Cosmos 2058 Rocket 3.9 01:13:06 10° SSW 01:17:24 49° W 01:20:44 16° N
NOAA 6 3.8 01:12:38 10° SSE 01:17:43 73° ENE 01:22:48 10° N
USA 81 4.4 01:19:04 10° N 01:24:17 64° W 01:29:28 10° S
BREEZE-M DEB (TANK) 4.4 01:20:23 10° S 01:24:47 38° ESE 01:24:47 38° ESE
BlueWalker 3 4.1 01:23:32 10° WNW 01:26:27 23° SW 01:28:00 17° SSW
Hubble Space Telescope 2.3 01:27:07 10° WSW 01:29:22 27° SSW 01:29:22 27° SSW
PSLV R/B 4.2 01:28:53 10° S 01:32:45 48° W 01:33:07 47° W
Cosmos 1980 Rocket 3.7 01:27:57 10° SW 01:32:58 32° WNW 01:36:57 15° N
CZ-4C R/B 3.7 01:33:01 10° NW 01:40:43 58° WSW 01:49:36 10° S
Cosmos 2369 4.4 01:36:14 10° SW 01:41:46 51° WNW 01:43:36 37° NNW
BREEZE M DEB (TANK) 4.2 01:41:12 10° NW 01:43:48 26° WNW 01:43:48 26° WNW
Cosmos 2263 Rocket 2.6 01:47:29 10° NNW 01:52:20 60° WNW 01:52:20 60° WNW
COSMOS 2455 3.1 01:51:01 10° SSW 01:56:21 66° WSW 01:56:21 66° WSW
Cosmos 2333 Rocket 4.3 02:00:11 10° S 02:01:21 17° S 02:01:21 17° S
Cosmos 2227 Rocket 4.2 02:01:36 10° NW 02:06:10 26° WSW 02:10:43 10° SSW
Centaur D-1A AC-31 4.3 02:36:53 10° WNW 03:23:51 40° SW 03:24:39 39° SW
CZ-3 R/B 4.0 08:34:17 10° W 09:25:36 74° SSW 09:37:24 10° ESE
CZ-3 Stage 3 3.7 10:07:38 79° SSW 10:07:49 79° S 10:36:20 10° E
USA 59 Rocket 3.2 10:11:25 10° ENE 10:11:25 10° ENE 10:11:26 10° ENE
Cosmos 1980 Rocket 3.1 10:32:10 43° ESE 10:32:10 43° ESE 10:36:12 10° SE
Cosmos 2142 Rocket 4.4 10:56:53 47° N 10:58:49 83° E 11:04:59 10° S
COSMOS 2455 3.5 10:59:43 33° N 11:02:08 51° ENE 11:07:57 10° SE
SL-24 R/B - RUBIN 2 4.4 11:05:51 43° SSE 11:05:51 43° SSE 11:08:55 10° SSE
Cosmos 489 Rocket 4.3 11:06:45 51° SW 11:08:22 72° WNW 11:14:38 10° NNE
Nadezhda 4 Rocket 3.9 11:05:36 10° S 11:11:55 84° W 11:18:14 10° N
Cosmos 1898 Rocket 4.0 11:10:27 32° N 11:12:44 59° ENE 11:17:55 10° SSE
H-II Stage 2 4.3 11:15:28 30° S 11:15:28 30° S 11:17:48 10° SE
Cosmos 2098 Rocket 3.9 11:17:16 52° SW 11:17:16 52° SW 11:21:53 10° S
Cosmos 1933 3.7 11:19:08 56° SE 11:19:08 56° SE 11:22:16 10° SSE
IRS-1D 3.7 11:14:33 10° NNE 11:19:35 72° ESE 11:24:43 10° S
OAO 2 Rocket 3.8 11:23:47 39° SW 11:25:26 59° SSE 11:30:30 10° E
Cosmos 372 Rocket 3.8 11:30:24 47° NW 11:31:45 70° WSW 11:36:46 10° S
Cosmos 546 4.4 11:33:13 85° N 11:33:16 86° NE 11:37:02 10° SE
Cosmos 1937 Rocket 3.7 11:29:56 19° N 11:33:37 66° ENE 11:38:42 10° SSE
Meteor 2-3 Rocket 3.6 11:32:54 10° SSW 11:38:38 71° W 11:44:19 10° N
Aureole 1 Rocket 4.4 11:35:17 22° NNW 11:40:08 59° WSW 11:47:18 10° S
COSMOS 2406 3.8 11:44:05 34° WNW 11:44:05 34° WNW 11:48:55 10° N
Cosmos 1606 Rocket 3.5 11:42:55 35° NNW 11:44:35 60° W 11:48:52 10° S
Cosmos 2237 4.1 11:41:41 19° NNW 11:45:57 88° WSW 11:51:37 10° SSE
CZ-4 R/B 3.6 11:43:04 10° N 11:47:39 65° WNW 11:52:11 10° SSW
OAO 3 Copernicus 4.2 11:45:52 37° W 11:47:50 80° N 11:52:51 10° ENE
Cosmos 405 Rocket 4.4 11:46:38 10° SSE 11:49:28 29° E 11:52:20 10° NNE
Centaur D AC-28 4.0 11:46:18 20° W 11:50:20 27° SW 11:54:22 10° SSE
ATLAS 2AS CENTAUR R/B 3.7 11:44:39 10° S 11:51:28 49° ESE 11:58:07 10° NE
Tiangong -2.1 11:51:40 59° NW 11:52:10 77° NNE 11:55:23 10° ESE
Centaur D-1AR AC-48 4.2 11:35:23 13° WSW 11:52:14 39° SSW 11:57:08 10° SE
Cosmos 1814 Rocket 4.2 11:47:18 10° S 11:52:28 74° ESE 11:57:44 10° NNE
